Location: El Águila
(10.4167°N, 66.7167°W)
Time: 03:58:25
(UTC+00:00)

Landsat 5 - Pass Details

Date: 02 October 2022
Orbit: 525 x 649 km, 98.2° (Epoch: 04 December)

Event Time Altitude Azimuth Distance (km) Brightness Sun altitude
Rises 23:35:46 0° 10° (N) 2,934 6.9 -20.3°
Reaches altitude 10° 23:37:59 10° 10° (N) 2,014 6.1 -20.8°
Maximum altitude 23:42:23 84° 285° (WNW) 628 3.5 -21.9°
Drops below altitude 10° 23:46:38 10° 194° (SSW) 1,950 6.3 -23.0°
Sets 23:48:46 0° 194° (SSW) 2,833 7.1 -23.5°
